[[{"header":{"parameterUnit":"m.s-1","parameterCategory":1,"la1":30.2991,"la2":30.254,"lo1":-89.0895,"lo2":-89.0444,"dy":0.0017,"dx":0.0017,"nx":28,"ny":28,"refTime":"2024-08-14T09:00:00:Z","depth":0,"parameterNumber":2,"parameterNumberName":"U-component_of_WINDS"},"data":[0,0,0,0,0,0,0,0,0,0,0,0,0,0,0,0,0,0,0,0,0,0,0,0,0,0,0,0,0,0,0,0,0,0,0,0,0,0,0,0,0,0,0,0,0,0,0,0,0,0,0,0,0,0,0,0,0,0,-1.2025,-1.2025,0,-1.2114,-1.2115,-1.2116,-1.2141,-1.214,-1.214,-1.214,-1.2228,-1.2231,-1.2234,0,0,0,0,0,0,0,0,0,0,0,0,0,-1.1875,-1.1878,-1.2024,-1.2026,-1.2027,-1.2113,-1.2115,-1.2116,-1.2141,-1.214,-1.214,-1.2139,-1.2227,-1.2231,-1.2234,0,0,0,0,0,0,0,0,0,0,0,0,0,-1.195,-1.1879,-1.2024,-1.205,-1.2053,-1.2113,-1.2115,-1.2116,-1.2141,-1.214,-1.214,-1.2139,-1.2226,-1.223,-1.2235,-1.2275,0,0,-1.2248,-1.2249,0,0,0,0,0,0,0,0,-1.1945,-1.1955,-1.2045,-1.2048,-1.2052,-1.2115,-1.2095,-1.2169,-1.2141,-1.2108,-1.214,-1.2139,-1.2191,-1.2198,-1.2217,-1.2279,-1.2283,-1.2248,-1.225,-1.2252,-1.2253,0,0,0,0,0,0,0,-1.194,-1.1951,-1.206,-1.2046,-1.205,-1.2056,-1.2066,-1.2109,-1.2152,-1.211,-1.2113,-1.2123,-1.2193,-1.2212,-1.2219,-1.2284,-1.2248,-1.2252,-1.2254,-1.2256,-1.2386,-1.2387,0,0,0,0,0,0,-1.1931,-1.1947,-1.2057,-1.2062,-1.1996,-1.206,-1.2071,-1.2096,-1.2152,-1.216,-1.2123,-1.2124,-1.2206,-1.2214,-1.2222,-1.2274,-1.2252,-1.2256,-1.2259,-1.2385,-1.2386,-1.2387,0,0,0,0,0,0,-1.1928,-1.194,-1.2053,-1.2005,-1.202,-1.2063,-1.2091,-1.2098,-1.2117,-1.2162,-1.2169,-1.2135,-1.2205,-1.2216,-1.2262,-1.2277,-1.2258,-1.2262,-1.2384,-1.2385,-1.2386,-1.2377,0,0,0,0,0,0,-1.1923,-1.1939,-1.1955,-1.2005,-1.2023,-1.2092,-1.2092,-1.21,-1.2125,-1.2126,-1.2175,-1.2182,-1.2206,-1.2256,-1.2266,-1.2282,-1.2265,-1.2383,-1.2384,-1.2386,-1.2376,-1.2378,-1.2379,0,0,0,0,0,-1.1918,-1.1948,-1.1956,-1.1969,-1.2043,-1.2093,-1.2103,-1.2129,-1.2126,-1.2142,-1.2171,-1.2181,-1.2274,-1.226,-1.2272,-1.229,-1.2382,-1.2384,-1.2386,-1.2375,-1.2377,-1.2379,0,0,0,0,0,0,-1.1897,-1.1955,-1.1964,-1.2012,-1.2047,-1.2097,-1.2118,-1.2131,-1.2167,-1.2167,-1.2198,-1.2209,-1.2253,-1.2276,-1.226,-1.2333,-1.2328,-1.2333,-1.2316,-1.2318,-1.232,-1.2313,-1.2269,0,0,0,0,0,-1.1898,-1.1934,-1.1983,-1.202,-1.2037,-1.2075,-1.2097,-1.2115,-1.2153,-1.2168,-1.22,-1.2236,-1.2273,-1.2297,-1.2334,-1.238,-1.2391,-1.2398,-1.2399,-1.2401,-1.2404,-1.2431,-1.2434,-1.2394,-1.2394,-1.2394,0,0,-1.1901,-1.1937,-1.1957,-1.2017,-1.2046,-1.2082,-1.2087,-1.2125,-1.2152,-1.2173,-1.2219,-1.2244,-1.2286,-1.2332,-1.2354,-1.2353,-1.2418,-1.2403,-1.2404,-1.2407,-1.2433,-1.2437,-1.244,-1.2395,-1.2395,-1.2395,0,0,-1.1923,-1.1954,-1.1989,-1.2019,-1.2065,-1.209,-1.2098,-1.2147,-1.2164,-1.2211,-1.2228,-1.226,-1.2324,-1.2353,-1.2377,-1.2412,-1.2423,-1.2424,-1.2432,-1.2457,-1.246,-1.2463,-1.2476,-1.2481,-1.2427,-1.2427,-1.2427,0,-1.192,-1.1976,-1.2005,-1.2043,-1.2069,-1.2091,-1.2127,-1.2154,-1.2209,-1.2226,-1.2224,-1.2305,-1.2335,-1.2389,-1.2398,-1.2416,-1.2426,-1.2418,-1.2458,-1.2461,-1.2464,-1.2477,-1.2482,-1.2427,-1.2427,-1.2427,-1.2427,0,-1.197,-1.2009,-1.2031,-1.2085,-1.2113,-1.2149,-1.2184,-1.2209,-1.2225,-1.225,-1.2298,-1.2335,-1.238,-1.2394,-1.2409,-1.245,-1.2448,-1.2452,-1.2448,-1.2467,-1.248,-1.2485,-1.2426,-1.2426,-1.2427,-1.2427,0,0,-1.1981,-1.2052,-1.206,-1.2085,-1.2137,-1.2167,-1.2205,-1.225,-1.2271,-1.2308,-1.234,-1.2394,-1.2398,-1.2425,-1.2444,-1.2466,-1.2493,-1.2467,-1.2469,-1.2471,-1.2541,-1.2538,-1.2543,-1.25,-1.2501,-1.2502,-1.2537,0,-1.2011,-1.2079,-1.2108,-1.2163,-1.2199,-1.2221,-1.2254,-1.2289,-1.2314,-1.2348,-1.2375,-1.2413,-1.2416,-1.2432,-1.2455,-1.2484,-1.2507,-1.2482,-1.253,-1.2531,-1.2519,-1.2549,-1.2546,-1.2577,-1.2542,-1.2543,-1.2544,0,-1.2054,-1.2093,-1.2152,-1.2201,-1.2217,-1.2246,-1.2291,-1.2323,-1.2364,-1.238,-1.2411,-1.2429,-1.2469,-1.2462,-1.2518,-1.2501,-1.2522,-1.2539,-1.2541,-1.2546,-1.2538,-1.2555,-1.2588,-1.2592,-1.2552,-1.2551,-1.255,0,-1.2056,-1.2124,-1.2168,-1.2189,-1.2247,-1.2267,-1.2292,-1.2332,-1.2358,-1.2396,-1.2413,-1.2456,-1.2479,-1.2511,-1.254,-1.2533,-1.2593,-1.2589,-1.2607,-1.2607,-1.2618,-1.2617,-1.2655,-1.2632,-1.2632,-1.2632,-1.2632,0,-1.2086,-1.2122,-1.217,-1.2197,-1.2238,-1.227,-1.2309,-1.2335,-1.2371,-1.2404,-1.2425,-1.2455,-1.2492,-1.2527,-1.2549,-1.2592,-1.2602,-1.2616,-1.2622,-1.2615,-1.2613,-1.2628,-1.2627,-1.2634,-1.2633,-1.2633,-1.2633,0,-1.2095,-1.2129,-1.2179,-1.2231,-1.2245,-1.2272,-1.2316,-1.2343,-1.237,-1.2411,-1.2422,-1.2463,-1.2505,-1.2538,-1.2592,-1.2607,-1.2653,-1.2659,-1.2639,-1.2642,-1.2659,-1.2656,-1.2707,-1.2716,-1.2688,-1.2688,-1.2688,0,-1.2112,-1.214,-1.2195,-1.2219,-1.2244,-1.2282,-1.2309,-1.2342,-1.2369,-1.2419,-1.244,-1.2484,-1.252,-1.2586,-1.2621,-1.2663,-1.267,-1.2685,-1.2676,-1.2668,-1.267,-1.2668,-1.2671,-1.2686,-1.2686,-1.2686,-1.2686,0,-1.2138,-1.2154,-1.2192,-1.2237,-1.2268,-1.2304,-1.2341,-1.2359,-1.2399,-1.2428,-1.2472,-1.25,-1.2557,-1.26,-1.2646,-1.2671,-1.2685,-1.2689,-1.2695,-1.2687,-1.2675,-1.2682,-1.2642,-1.2687,-1.2687,-1.2687,-1.2687,-1.2687,-1.2152,-1.2178,-1.2221,-1.2263,-1.2295,-1.2329,-1.2357,-1.2388,-1.2425,-1.2474,-1.2491,-1.2536,-1.2577,-1.264,-1.2666,-1.2702,-1.2702,-1.2712,-1.2714,-1.2716,-1.2715,-1.267,-1.271,-1.271,-1.271,-1.271,-1.271,0,-1.2179,-1.2208,-1.2247,-1.2298,-1.2331,-1.2343,-1.2384,-1.2411,-1.2451,-1.2489,-1.2525,-1.2575,-1.2618,-1.2656,-1.27,-1.2721,-1.2729,-1.2732,-1.273,-1.2736,-1.2712,-1.2702,-1.2725,-1.2725,-1.2725,-1.2725,-1.2725,-1.2725,-1.2197,-1.2242,-1.2263,-1.2324,-1.2354,-1.2399,-1.2422,-1.2453,-1.2483,-1.2539,-1.2575,-1.26,-1.2638,-1.2685,-1.2725,-1.2735,-1.275,-1.2751,-1.2763,-1.274,-1.2738,-1.2736,-1.2727,-1.2754,-1.2754,-1.2784,-1.2784,-1.2784]},{"header":{"parameterUnit":"m.s-1","parameterCategory":1,"la1":30.2991,"la2":30.254,"lo1":-89.0895,"lo2":-89.0444,"dy":0.0017,"dx":0.0017,"nx":28,"ny":28,"refTime":"2024-08-14T09:00:00:Z","depth":0,"parameterNumber":3,"parameterNumberName":"V-component_of_WINDS"},"data":[0,0,0,0,0,0,0,0,0,0,0,0,0,0,0,0,0,0,0,0,0,0,0,0,0,0,0,0,0,0,0,0,0,0,0,0,0,0,0,0,0,0,0,0,0,0,0,0,0,0,0,0,0,0,0,0,0,0,2.5602,2.5603,0,2.5641,2.5641,2.5642,2.5635,2.5634,2.5634,2.5633,2.567,2.5671,2.5673,0,0,0,0,0,0,0,0,0,0,0,0,0,2.5519,2.552,2.5602,2.5603,2.5603,2.5641,2.5641,2.5642,2.5635,2.5634,2.5633,2.5633,2.5669,2.5671,2.5673,0,0,0,0,0,0,0,0,0,0,0,0,0,2.5556,2.5521,2.5602,2.5604,2.5605,2.5641,2.5641,2.5642,2.5635,2.5634,2.5633,2.5632,2.5668,2.5671,2.5673,2.5708,0,0,2.568,2.5681,0,0,0,0,0,0,0,0,2.5554,2.5559,2.5603,2.5604,2.5605,2.5632,2.5625,2.5664,2.5635,2.5624,2.5633,2.5632,2.5658,2.5661,2.567,2.571,2.5711,2.5681,2.5682,2.5683,2.5684,0,0,0,0,0,0,0,2.5551,2.5557,2.5617,2.5604,2.5605,2.5602,2.5606,2.5632,2.5646,2.5625,2.5624,2.5629,2.5658,2.5668,2.5671,2.5712,2.5681,2.5683,2.5684,2.5685,2.5779,2.578,0,0,0,0,0,0,2.5548,2.5555,2.5616,2.5618,2.5576,2.5604,2.5609,2.5624,2.5645,2.5648,2.563,2.5629,2.5664,2.5668,2.5672,2.5713,2.5683,2.5685,2.5687,2.5778,2.5779,2.578,0,0,0,0,0,0,2.5546,2.5554,2.5614,2.5587,2.5594,2.5607,2.5624,2.5626,2.5636,2.5649,2.5651,2.5638,2.5664,2.5669,2.5699,2.5714,2.5686,2.5689,2.5777,2.5778,2.578,2.5794,0,0,0,0,0,0,2.5544,2.5553,2.5568,2.5587,2.5596,2.5641,2.5625,2.5627,2.564,2.5639,2.5658,2.566,2.5663,2.5695,2.5701,2.5717,2.5691,2.5775,2.5778,2.5779,2.5793,2.5796,2.58,0,0,0,0,0,2.5541,2.557,2.5568,2.5576,2.5614,2.5642,2.5647,2.5652,2.5641,2.5655,2.5664,2.5659,2.5712,2.5698,2.5705,2.5721,2.5774,2.5777,2.5779,2.5791,2.5796,2.5799,0,0,0,0,0,0,2.5551,2.5573,2.5571,2.5607,2.5623,2.5641,2.5659,2.5657,2.5675,2.5673,2.5677,2.5681,2.5711,2.5719,2.5704,2.5755,2.5741,2.5745,2.5748,2.5753,2.5756,2.5752,2.5693,0,0,0,0,0,2.5558,2.5581,2.5597,2.5628,2.5636,2.5646,2.5658,2.5661,2.5677,2.5683,2.5694,2.5709,2.5728,2.5741,2.576,2.5794,2.5797,2.5809,2.5812,2.5815,2.5818,2.5834,2.5839,2.5788,2.5788,2.5788,0,0,2.5572,2.5586,2.56,2.563,2.5643,2.5664,2.5652,2.5675,2.5691,2.5686,2.5715,2.5723,2.574,2.5772,2.5786,2.5779,2.5832,2.5818,2.582,2.5821,2.5837,2.5842,2.5846,2.579,2.579,2.5789,0,0,2.5607,2.5621,2.5647,2.566,2.5679,2.5685,2.5691,2.571,2.5715,2.5744,2.574,2.5758,2.5793,2.5804,2.5815,2.5853,2.5848,2.5859,2.5876,2.5892,2.5896,2.59,2.5911,2.5916,2.5862,2.5862,2.5862,0,2.5621,2.5655,2.566,2.5684,2.5696,2.5694,2.5719,2.5731,2.5755,2.5762,2.5755,2.5797,2.5809,2.5842,2.5851,2.586,2.5865,2.5856,2.5895,2.5899,2.5902,2.5913,2.5918,2.5863,2.5863,2.5863,2.5863,0,2.567,2.5693,2.5711,2.5734,2.5749,2.5773,2.5781,2.5795,2.5795,2.5802,2.583,2.5844,2.5865,2.5873,2.5874,2.5906,2.5901,2.5895,2.5881,2.5908,2.5918,2.5923,2.5864,2.5864,2.5864,2.5864,0,0,2.5712,2.5738,2.5744,2.5754,2.5775,2.5792,2.5815,2.5836,2.5847,2.5863,2.5881,2.591,2.5904,2.5916,2.5918,2.5932,2.5959,2.5924,2.5924,2.5928,2.5992,2.5995,2.6,2.5957,2.5958,2.5958,2.599,0,2.5748,2.579,2.5795,2.5831,2.5851,2.5849,2.5869,2.5883,2.5889,2.5906,2.5913,2.5933,2.5924,2.5931,2.5945,2.5953,2.5971,2.5951,2.5972,2.5972,2.5966,2.6006,2.601,2.6039,2.5994,2.5995,2.5996,0,2.5795,2.5813,2.5851,2.5867,2.5876,2.5894,2.5912,2.5929,2.5944,2.5948,2.596,2.596,2.5982,2.5969,2.5999,2.5984,2.5993,2.5998,2.5999,2.6,2.5984,2.6006,2.6049,2.6053,2.6002,2.6002,2.6001,0,2.5819,2.5853,2.588,2.5889,2.5909,2.5921,2.5929,2.5944,2.5955,2.5971,2.5978,2.5997,2.6006,2.602,2.6024,2.6014,2.6053,2.604,2.6055,2.6055,2.6062,2.6061,2.6105,2.6071,2.6071,2.6071,2.607,0,2.5857,2.588,2.5891,2.5907,2.5932,2.5937,2.5962,2.597,2.5982,2.5999,2.5998,2.6014,2.6019,2.6035,2.6039,2.6061,2.6066,2.6069,2.6069,2.6068,2.6067,2.6072,2.607,2.6072,2.6071,2.6071,2.6071,0,2.5888,2.5897,2.5925,2.5942,2.5946,2.5964,2.5977,2.5992,2.5998,2.6019,2.6024,2.6034,2.6053,2.6059,2.6081,2.6084,2.6109,2.6109,2.6104,2.6104,2.6118,2.6115,2.6165,2.6171,2.6135,2.6135,2.6135,0,2.5911,2.5929,2.5947,2.5958,2.5967,2.5986,2.5998,2.6003,2.6015,2.6033,2.6045,2.6064,2.6078,2.6108,2.6116,2.6133,2.6132,2.6148,2.6134,2.6132,2.613,2.6128,2.6129,2.615,2.615,2.6151,2.6151,0,2.595,2.5953,2.597,2.5989,2.6003,2.6017,2.6031,2.604,2.6048,2.6061,2.608,2.6092,2.6114,2.6132,2.6149,2.6157,2.6154,2.6156,2.6159,2.6157,2.6153,2.6154,2.6109,2.6154,2.6154,2.6153,2.6153,2.6153,2.5976,2.5991,2.6006,2.6024,2.6035,2.6048,2.6063,2.6071,2.6087,2.6106,2.6108,2.6128,2.6141,2.6164,2.6172,2.6187,2.6183,2.6189,2.619,2.6191,2.6191,2.6152,2.6191,2.6191,2.6191,2.6191,2.619,0,2.6013,2.6022,2.604,2.6059,2.6073,2.6071,2.6086,2.6098,2.6116,2.6129,2.6143,2.6164,2.6181,2.6191,2.6207,2.6218,2.6217,2.6222,2.622,2.6221,2.6195,2.6189,2.6222,2.6222,2.6222,2.6222,2.6222,2.6222,2.6034,2.6058,2.6063,2.6092,2.61,2.612,2.6129,2.614,2.615,2.6174,2.6188,2.6194,2.6205,2.6222,2.6237,2.624,2.6245,2.625,2.6251,2.6227,2.6223,2.622,2.6215,2.6252,2.6252,2.6276,2.6276,2.6276]}]]